Rbgn^[z[y[W
メイン
   新天体発見情報
     Comet P/2023 X3 (PANSTARRS)
投稿するにはまず登録を

スレッド表示 | 新しいものから 前のトピック | 次のトピック | 下へ
投稿者 スレッド
佐藤裕久
投稿日時: 2023-12-24 2:06
モデレータ
登録日: 2005-6-12
居住地: 日本
投稿: 2629
オンライン
Comet P/2023 X3 (PANSTARRS)

Yudish Ramanjooloo (ハワイ大学天文学研究所)の通報によると、12月7日、Haleakalaにある
Pan-STARRS1とPan-STARRS2 1.8-m Ritchey-Chretien 反射望遠鏡で得た画像から彗星を発見
した。3枚の45-秒のw-バンドPan-STARRS2露出では、約1".3のシーイングで、2".1 (半値全幅:
FWHM)の非常に拡散したコマが見え、p.a. 240°に向かって約3"の非常にかすかな尾がある。
小惑星センターのPCCP webpageに公表後、F. D. Romanov (Yuzhno-Morskoy, Nakhodka, ロシア, 
12月9.0日UT、60-秒露出15枚のスタック, 2.0-m f/10 Ritchey-Chretien 反射望遠鏡 + Sloan r' 
フィルター, La Palma: コンパクトな6"のコマが見えるが、尾はない。光度は20.7等に近い)ら
らCCD観測者によって彗星状と観測された。
佐藤英貴氏(東京都文京区)は、12月10.4日、120-秒露出12枚のスタック, 0.43-m f/6.8 アストロ
グラフ, Utah Desert Remote 天文台, Beryl Junction近郊, ユタ州, 米国, 遠隔操作)で恒星状に
しか見えず、3".8の円形範囲で測定した光度は21.4等であった。

彗星機能の報告は次のとおり、

OC   Date        Reporter           Coma    Tail    PA          Exposures
J13  2023-12-09  F. D. Romanov      6"                           15x60s
F52  2023-12-10  R. Weryk           0".4      5"    260           8x45s

発見位置は次のとおり、

     2023 UT             R.A. (2000) Decl.       Mag.
     Dec.  7.35062    4 50 53.69   +23 54 21.4   21.1
           7.36297    4 50 53.10   +23 54 21.4   21.0
           7.37545    4 50 52.47   +23 54 21.4   21.0
           7.49363    4 50 46.75   +23 54 22.1   20.9
           7.49427    4 50 46.71   +23 54 22.1   21.0

MPCの楕円軌道要素、位置推算表は次のとおり、

Orbital elements:
    P/2023 X3 (PANSTARRS)                                                       
Epoch 2023 Sept. 13.0 TT = JDT 2460200.5                                        
T 2024 Apr. 22.45081 TT                                 Bell                    
q   3.0294535            (2000.0)            P               Q                  
n   0.11229306     Peri.   40.93480     -0.22238527     -0.97250990             
a   4.2550119      Node    62.01853     +0.87288991     -0.23015604             
e   0.2880270      Incl.    4.48522     +0.43429023     -0.03539337             
P   8.78                                                                        
From 49 observations 2023 Oct. 22-Dec. 11, mean residual 0".2.                  
                                                                                
Ephemeris:
Date    TT    R. A. (2000) Decl.     Delta      r    Elong.  Phase   m1
2023 11 13    05 07 40.8 +23 43 33   2.2374  3.1456   152.0     8.5  22.2
...
2023 11 28    04 58 03.0 +23 52 19   2.1510  3.1257   169.2     3.4  22.1
...
2023 12 06    04 51 56.9 +23 54 13   2.1307  3.1158   178.2     0.6  22.1
...
2023 12 12    04 47 16.2 +23 54 29   2.1278  3.1087   173.9     1.9  22.1
2023 12 13    04 46 29.9 +23 54 27   2.1284  3.1075   172.7     2.3  22.1
2023 12 14    04 45 43.9 +23 54 24   2.1292  3.1064   171.5     2.7  22.1
...
2023 12 20    04 41 17.3 +23 53 45   2.1404  3.0996   164.5     4.9  22.1
...
2023 12 28    04 36 01.2 +23 52 31   2.1709  3.0911   155.2     7.7  22.1
...
2024 01 12    04 29 15.6 +23 52 01   2.2712  3.0765   138.4    12.3  22.2

(MPEC 2023-X269、CBET 5326)

スレッド表示 | 新しいものから 前のトピック | 次のトピック | トップ

投稿するにはまず登録を
 
© 1999 Tsutomu Seki.